[[{"header":{"parameterUnit":"m.s-1","parameterCategory":1,"la1":30.2991,"la2":30.254,"lo1":-89.0895,"lo2":-89.0444,"dy":0.0017,"dx":0.0017,"nx":28,"ny":28,"refTime":"2023-08-09T03:00:00:Z","depth":0,"parameterNumber":2,"parameterNumberName":"U-component_of_WINDS"},"data":[0,0,0,0,0,0,0,0,0,0,0,0,0,0,0,0,0,0,0,0,0,0,0,0,0,0,0,0,0,0,0,0,0,0,0,0,0,0,0,0,0,0,0,0,0,0,0,0,0,0,0,0,0,0,0,0,0,0,1.019,1.0192,0,1.0363,1.0365,1.0367,1.0457,1.0457,1.0457,1.0457,1.0634,1.0639,1.0643,0,0,0,0,0,0,0,0,0,0,0,0,0,0.9938,0.9942,1.019,1.0192,1.0194,1.0362,1.0365,1.0367,1.0457,1.0457,1.0457,1.0458,1.0633,1.0638,1.0644,0,0,0,0,0,0,0,0,0,0,0,0,0,1.0073,0.9944,1.0189,1.0259,1.0267,1.0362,1.0365,1.0368,1.0457,1.0457,1.0457,1.0458,1.0631,1.0638,1.0644,1.0682,0,0,1.0665,1.0668,0,0,0,0,0,0,0,0,1.0065,1.0082,1.0247,1.0255,1.0264,1.0389,1.0341,1.0473,1.0457,1.0385,1.0457,1.0458,1.0552,1.0566,1.0598,1.0691,1.0698,1.0666,1.067,1.0673,1.0675,0,0,0,0,0,0,0,1.0055,1.0075,1.0258,1.0249,1.026,1.0282,1.0301,1.0366,1.0465,1.0391,1.0398,1.0417,1.0557,1.0591,1.0602,1.0701,1.0666,1.0672,1.0676,1.0679,1.0834,1.0834,0,0,0,0,0,0,1.0035,1.0066,1.0253,1.0263,1.0163,1.0286,1.0308,1.0348,1.0465,1.0483,1.0417,1.0421,1.0579,1.0594,1.0609,1.0661,1.0673,1.0679,1.0683,1.0834,1.0834,1.0834,0,0,0,0,0,0,1.0029,1.0051,1.0246,1.0167,1.0194,1.0291,1.0335,1.0352,1.0385,1.0484,1.0503,1.0433,1.058,1.0599,1.0664,1.0669,1.0682,1.0689,1.0834,1.0834,1.0834,1.0766,0,0,0,0,0,0,1.0022,1.0048,1.0063,1.0167,1.0197,1.0297,1.0335,1.0355,1.0397,1.0404,1.0504,1.0521,1.0581,1.0653,1.067,1.0678,1.0694,1.0834,1.0834,1.0834,1.0768,1.0763,1.076,0,0,0,0,0,1.0012,1.0037,1.0064,1.0086,1.0219,1.0297,1.0315,1.0383,1.0397,1.0413,1.0477,1.0518,1.0665,1.0659,1.0679,1.0689,1.0834,1.0834,1.0834,1.077,1.0764,1.076,0,0,0,0,0,0,0.9932,1.0052,1.0083,1.0142,1.0209,1.0312,1.0335,1.0375,1.044,1.0443,1.0526,1.0548,1.0604,1.0653,1.0644,1.0732,1.0754,1.0758,1.0698,1.0694,1.0689,1.0676,1.07,0,0,0,0,0,0.9921,0.9975,1.0077,1.0119,1.0151,1.0237,1.0274,1.0321,1.0394,1.0422,1.0491,1.0559,1.0621,1.066,1.0723,1.0776,1.0799,1.0793,1.0789,1.0785,1.0787,1.0819,1.0817,1.0834,1.0834,1.0834,0,0,0.9899,0.9971,1.0,1.0105,1.0162,1.0216,1.026,1.0315,1.0356,1.0431,1.0495,1.0548,1.063,1.0689,1.0718,1.0732,1.0788,1.0785,1.0781,1.0786,1.0819,1.0817,1.0815,1.0834,1.0834,1.0834,0,0,0.9886,0.9947,0.9989,1.0045,1.0132,1.0189,1.0198,1.0297,1.0334,1.0401,1.0458,1.0507,1.0612,1.0669,1.0711,1.072,1.076,1.0738,1.0716,1.0746,1.0744,1.0744,1.0747,1.0747,1.074,1.074,1.074,0,0.9848,0.9932,1.0005,1.0057,1.0101,1.0171,1.0214,1.0266,1.0368,1.0397,1.0411,1.0544,1.0604,1.0677,1.0679,1.0711,1.0725,1.0727,1.0739,1.0739,1.0739,1.0743,1.0744,1.0737,1.0737,1.0738,1.0738,0,0.988,0.9937,0.9961,1.0058,1.0105,1.0152,1.0232,1.0271,1.0314,1.037,1.0436,1.0511,1.059,1.0611,1.0654,1.069,1.0696,1.0723,1.0746,1.0733,1.0738,1.074,1.0732,1.0733,1.0734,1.0735,0,0,0.9821,0.9958,0.9966,1.0011,1.0112,1.0157,1.0208,1.0285,1.0316,1.0385,1.0429,1.0516,1.0542,1.059,1.0639,1.0666,1.0668,1.069,1.0693,1.0683,1.0713,1.0691,1.0692,1.0695,1.0696,1.0697,1.0706,0,0.9822,0.9916,0.9984,1.0052,1.0105,1.0173,1.0217,1.0284,1.0337,1.039,1.045,1.051,1.0539,1.0569,1.0598,1.0661,1.0675,1.0662,1.0737,1.0739,1.0714,1.0694,1.0672,1.0677,1.0708,1.0709,1.0709,0,0.9836,0.9903,0.9976,1.0071,1.0096,1.0135,1.0211,1.0261,1.0338,1.0375,1.0428,1.048,1.0536,1.0554,1.0633,1.0622,1.0657,1.0693,1.0695,1.0704,1.0723,1.0703,1.068,1.068,1.0713,1.0712,1.0712,0,0.9785,0.9893,0.9951,0.9987,1.01,1.0125,1.0173,1.0251,1.0293,1.036,1.0388,1.046,1.0499,1.0554,1.0623,1.063,1.0695,1.0719,1.0727,1.0725,1.0737,1.0735,1.0719,1.076,1.076,1.076,1.076,0,0.9779,0.9821,0.9929,0.9965,1.0014,1.0091,1.0138,1.0192,1.026,1.0307,1.037,1.0413,1.0502,1.0555,1.061,1.0666,1.0684,1.0715,1.0729,1.0709,1.0705,1.0733,1.0734,1.076,1.076,1.076,1.076,0,0.973,0.9804,0.9872,0.9973,1.0,1.0031,1.0118,1.0155,1.0212,1.0271,1.0289,1.0379,1.0445,1.052,1.0611,1.0648,1.07,1.0721,1.0674,1.0682,1.0686,1.0684,1.0687,1.0691,1.0728,1.0728,1.0727,0,0.9721,0.9755,0.986,0.9897,0.9943,1.0001,1.0044,1.0122,1.0165,1.0255,1.0281,1.0352,1.0413,1.0516,1.0589,1.0659,1.0682,1.0678,1.0693,1.0672,1.0681,1.0678,1.0682,1.0673,1.0672,1.0672,1.0671,0,0.9697,0.9732,0.9793,0.9866,0.9916,0.9978,1.0042,1.0068,1.0159,1.0203,1.0272,1.0319,1.0413,1.0483,1.0562,1.0612,1.0656,1.0666,1.0672,1.0651,1.0623,1.0638,1.0662,1.0666,1.0666,1.0667,1.0667,1.0667,0.9668,0.9701,0.978,0.9846,0.9902,0.9961,1.0001,1.0063,1.0122,1.0204,1.0246,1.0314,1.0391,1.0502,1.0551,1.0605,1.062,1.0627,1.0629,1.063,1.0624,1.0614,1.062,1.062,1.062,1.062,1.0621,0,0.9646,0.9701,0.9761,0.9848,0.99,0.9938,1.0011,1.0052,1.0111,1.0179,1.0238,1.0317,1.0385,1.0464,1.0537,1.0565,1.0587,1.0582,1.058,1.0591,1.0607,1.0595,1.0562,1.0562,1.0562,1.0562,1.0562,1.0562,0.9641,0.97,0.9744,0.9832,0.9887,0.9954,0.9992,1.0047,1.0101,1.0187,1.0244,1.0295,1.0367,1.0446,1.0511,1.0532,1.0556,1.0544,1.0571,1.0585,1.059,1.0594,1.0583,1.0548,1.0548,1.055,1.055,1.055]},{"header":{"parameterUnit":"m.s-1","parameterCategory":1,"la1":30.2991,"la2":30.254,"lo1":-89.0895,"lo2":-89.0444,"dy":0.0017,"dx":0.0017,"nx":28,"ny":28,"refTime":"2023-08-09T03:00:00:Z","depth":0,"parameterNumber":3,"parameterNumberName":"V-component_of_WINDS"},"data":[0,0,0,0,0,0,0,0,0,0,0,0,0,0,0,0,0,0,0,0,0,0,0,0,0,0,0,0,0,0,0,0,0,0,0,0,0,0,0,0,0,0,0,0,0,0,0,0,0,0,0,0,0,0,0,0,0,0,6.2464,6.2464,0,6.2401,6.24,6.2399,6.2337,6.2336,6.2335,6.2335,6.2263,6.2262,6.2261,0,0,0,0,0,0,0,0,0,0,0,0,0,6.2528,6.2527,6.2464,6.2464,6.2463,6.2401,6.24,6.2399,6.2337,6.2336,6.2335,6.2334,6.2263,6.2262,6.2261,0,0,0,0,0,0,0,0,0,0,0,0,0,6.2486,6.2527,6.2465,6.2425,6.242,6.2401,6.24,6.2399,6.2337,6.2336,6.2335,6.2334,6.2264,6.2262,6.226,6.2273,0,0,6.2255,6.2254,0,0,0,0,0,0,0,0,6.2488,6.2483,6.2431,6.2427,6.2423,6.2376,6.2396,6.2356,6.2338,6.2369,6.2335,6.2333,6.2301,6.2296,6.2287,6.227,6.2267,6.2255,6.2254,6.2253,6.2253,0,0,0,0,0,0,0,6.2491,6.2486,6.2439,6.2431,6.2425,6.2408,6.2401,6.2388,6.2342,6.2366,6.2361,6.2355,6.2298,6.2288,6.2284,6.2266,6.2255,6.2253,6.2252,6.2252,6.2257,6.2258,0,0,0,0,0,0,6.2501,6.2489,6.2441,6.2437,6.2453,6.2408,6.24,6.2392,6.2342,6.2333,6.2356,6.2352,6.2292,6.2287,6.2282,6.2294,6.2253,6.2252,6.2251,6.2256,6.2258,6.2259,0,0,0,0,0,0,6.2502,6.2497,6.2444,6.2462,6.2454,6.2408,6.24,6.2391,6.2381,6.2335,6.2326,6.2355,6.2291,6.2284,6.2277,6.2291,6.2251,6.2249,6.2255,6.2257,6.2258,6.2319,0,0,0,0,0,0,6.2505,6.2498,6.2504,6.2462,6.2453,6.2441,6.24,6.2391,6.2379,6.2374,6.2331,6.2323,6.2289,6.228,6.2275,6.2288,6.2248,6.2253,6.2256,6.2258,6.2315,6.2322,6.2329,0,0,0,0,0,6.2507,6.2522,6.2504,6.2499,6.2459,6.2442,6.2436,6.24,6.2381,6.2385,6.2355,6.2324,6.229,6.2279,6.2273,6.2286,6.2252,6.2255,6.2257,6.2312,6.2321,6.2328,0,0,0,0,0,0,6.2564,6.2516,6.2496,6.2498,6.2475,6.2432,6.2436,6.241,6.239,6.2386,6.2339,6.233,6.2328,6.2306,6.2294,6.2296,6.2267,6.2268,6.231,6.2318,6.2325,6.233,6.2246,0,0,0,0,0,6.2577,6.2569,6.2526,6.2532,6.2522,6.2482,6.2473,6.2447,6.242,6.2409,6.2379,6.2353,6.2336,6.2326,6.2308,6.2312,6.2302,6.2318,6.2324,6.233,6.2332,6.2333,6.2339,6.2268,6.2268,6.2268,0,0,6.2603,6.2576,6.2573,6.2543,6.2522,6.2514,6.2474,6.2466,6.2459,6.2407,6.2399,6.2376,6.2344,6.2342,6.234,6.2324,6.235,6.2334,6.2338,6.2337,6.2336,6.2343,6.2349,6.227,6.2269,6.2269,0,0,6.2647,6.2626,6.2629,6.2609,6.2579,6.2552,6.2553,6.2514,6.2498,6.2489,6.2451,6.2441,6.2413,6.2392,6.2378,6.2415,6.2386,6.241,6.2445,6.2446,6.2452,6.2457,6.247,6.2475,6.2412,6.2413,6.2413,0,6.2683,6.267,6.2633,6.2628,6.2616,6.2572,6.2574,6.2556,6.2521,6.2513,6.2496,6.2462,6.2437,6.243,6.244,6.2429,6.2428,6.2415,6.2454,6.2459,6.2463,6.2475,6.248,6.2416,6.2415,6.2415,6.2415,0,6.2716,6.2707,6.2713,6.2683,6.2671,6.267,6.2632,6.2624,6.2599,6.2574,6.2566,6.2535,6.251,6.2507,6.2481,6.2497,6.2488,6.2463,6.2433,6.2473,6.2484,6.2488,6.242,6.2419,6.2418,6.2418,0,0,6.2792,6.2743,6.2746,6.2732,6.2696,6.2688,6.2685,6.2663,6.2657,6.2635,6.263,6.2609,6.2587,6.257,6.2542,6.2544,6.2576,6.2519,6.2517,6.2531,6.2591,6.2609,6.2616,6.2556,6.2557,6.2558,6.2593,0,6.2829,6.2823,6.279,6.2792,6.2784,6.2743,6.2739,6.2716,6.2693,6.2681,6.2654,6.264,6.2612,6.2602,6.2602,6.2572,6.2587,6.2569,6.255,6.255,6.256,6.2621,6.264,6.2676,6.2597,6.2598,6.2599,0,6.2872,6.2855,6.2857,6.2823,6.2818,6.2816,6.2794,6.2784,6.2757,6.2739,6.2723,6.2692,6.2685,6.2657,6.2646,6.2635,6.2625,6.261,6.261,6.2607,6.2577,6.2619,6.2686,6.2691,6.2605,6.2604,6.2604,0,6.2928,6.2905,6.2903,6.2893,6.2852,6.2852,6.2835,6.2807,6.2796,6.2776,6.2769,6.2748,6.2736,6.272,6.2684,6.2667,6.2677,6.2647,6.2662,6.2663,6.2665,6.2665,6.2731,6.266,6.266,6.2659,6.2659,0,6.2973,6.2976,6.2928,6.2927,6.2929,6.2891,6.2894,6.2872,6.2848,6.2841,6.2803,6.2797,6.2751,6.2739,6.2711,6.2707,6.2701,6.2686,6.2679,6.269,6.2692,6.2682,6.2679,6.2661,6.266,6.266,6.266,0,6.3035,6.3003,6.2999,6.2962,6.2953,6.2956,6.2924,6.2921,6.2896,6.2888,6.2883,6.2843,6.2828,6.2791,6.2765,6.2746,6.2749,6.2735,6.2759,6.2754,6.2772,6.2771,6.2834,6.284,6.2765,6.2765,6.2766,0,6.3066,6.3067,6.3031,6.3025,6.3011,6.3001,6.2991,6.2953,6.2944,6.2914,6.2914,6.2897,6.2881,6.2858,6.2825,6.2805,6.279,6.2814,6.2787,6.2798,6.2791,6.2791,6.2791,6.282,6.2821,6.2822,6.2822,0,6.3124,6.3109,6.3096,6.3079,6.3069,6.3053,6.3034,6.3031,6.2989,6.298,6.2965,6.2953,6.2928,6.291,6.2886,6.2866,6.2837,6.2831,6.2834,6.2845,6.2859,6.2852,6.2775,6.283,6.2829,6.2828,6.2828,6.2828,6.3171,6.3171,6.3146,6.3134,6.3117,6.3101,6.3097,6.3073,6.306,6.3039,6.3017,6.3004,6.2977,6.2942,6.2924,6.2913,6.2898,6.2902,6.2902,6.2904,6.2909,6.2861,6.2908,6.2908,6.2908,6.2908,6.2907,0,6.3227,6.321,6.3199,6.3176,6.3166,6.3142,6.3121,6.3114,6.3105,6.3083,6.3069,6.3052,6.3035,6.3002,6.2982,6.298,6.2966,6.2976,6.2975,6.2971,6.2923,6.2923,6.2987,6.2987,6.2987,6.2987,6.2987,6.2987,6.3255,6.3255,6.3237,6.3227,6.3208,6.3198,6.3188,6.3173,6.3156,6.3139,6.3126,6.3106,6.3079,6.3058,6.3041,6.3032,6.3026,6.304,6.3026,6.2982,6.2975,6.2967,6.2967,6.3039,6.3039,6.3075,6.3076,6.3076]}]]